Regional Weather Roundup
Issued by NWS Sioux Falls, SD

Home | Current Version | Previous Version | Graphics & Text | Print | Product List | Glossary Off
Versions: 1 2 3 4 5 6 7 8 9 10 11 12 13 14 15 16 17 18 19 20 21 22 23 24 25 26 27 28 29 30 31 32 33 34 35 36 37 38 39 40 41 42 43 44 45 46 47 48 49 50

000
ASUS43 KFSD 241610
RWRFSD

WEATHER ROUNDUP FOR SE SOUTH DAKOTA/SW MINNESOTA/NW IOWA
NATIONAL WEATHER SERVICE SIOUX FALLS SD
1100 AM CDT THU JUL 24 2014

NOTE: "FAIR" INDICATES FEW OR NO CLOUDS BELOW 12,000 FEET WITH NO
SIGNIFICANT WEATHER AND OR OBSTRUCTIONS TO VISIBILITY.


SDZ038>040-050-052>070-241700-
SOUTHEAST SOUTH DAKOTA

CITY           SKY/WX    TMP DP  RH WIND       PRES   REMARKS
CHAMBERLAIN    PTSUNNY   74  63  69 SE25G35   29.88F
HURON          CLOUDY    71  63  75 E22G29    29.94F
MADISON        FAIR      66  64  94 S12G17    30.05S
MITCHELL       PTSUNNY   77  63  61 S16G25    29.96F
SIOUX FALLS    CLOUDY    69  61  75 SE8       30.06F THUNDER
WINNER         FAIR      83  64  52 SE24G35   29.87F
YANKTON        MOSUNNY   75  63  64 S21G28    30.02F
$$

MNZ071-072-080-081-089-090-097-098-241700-
SOUTHWEST MINNESOTA

CITY           SKY/WX    TMP DP  RH WIND       PRES   REMARKS
FAIRMONT       MOSUNNY   75  57  53 S12       30.11F
JACKSON        MOSUNNY   77  57  50 S9        30.11F
LUVERNE        MOSUNNY   72  61  68 S10       30.09S
MARSHALL       SUNNY     75  57  53 S15       30.08S
MONTEVIDEO     SUNNY     75  57  53 S9        30.09S
PIPESTONE      MOSUNNY   70  61  73 S10       30.09S
REDWOOD FALLS  SUNNY     77  58  51 SE12      30.09S
TRACY          SUNNY     76  60  57 S9        30.09F
WINDOM         MOSUNNY   75  57  53 S9        30.10S
WORTHINGTON    MOSUNNY   72  57  60 S12G18    30.11S
$$

IAZ001>003-012>014-020>022-031-032-NEZ013-014-SDZ071-241700-
NORTHWEST IOWA

CITY           SKY/WX    TMP DP  RH WIND       PRES   REMARKS
CHEROKEE       CLOUDY    69  62  77 S6G24     30.05F
DENISON        CLOUDY    68  63  83 SE7       30.15F
ESTHERVILLE    PTSUNNY   73  60  63 S15       30.11F
LE MARS        PTSUNNY   70  61  73 S15G29    30.02F
ORANGE CITY    PTSUNNY   70  61  73 E7        30.07R
SHELDON        PTSUNNY   72  63  73 VRB6G13   30.09R
SIOUX CITY     CLOUDY    67  63  87 S14G23    30.05F
SPENCER        PTSUNNY   74  60  61 SE16G22   30.08F
STORM LAKE     CLOUDY    66  64  94 SE16G23   30.05F
$$

ABBREVIATIONS USED IN REMARKS
   TC - TEMPERATURE IN CELSIUS
  WCI - WIND CHILL INDEX
   HX - HEAT INDEX
  VSB - VISIBILITY




USA.gov is the U.S. government's official web portal to all federal, state and local government web resources and services.